Tracking 18980 objects as of 20-Feb-2018
HD Live streaming from Space Station
objects crossing your sky now

OPS 1127 (DMSP 4B F3)

Track OPS 1127 (DMSP 4B F3) now!
10-day predictions
OPS 1127 (DMSP 4B F3) is classified as:


NORAD ID: 4047
Int'l Code: 1969-062A
Perigee: 771.3 km
Apogee: 835.8 km
Inclination: 98.8 °
Period: 100.8 minutes
Semi major axis: 7174 km
RCS: 0.6649 m2 (medium)
Launch date: July 23, 1969
Source: United States (US)
Launch site: AIR FORCE WESTERN TEST RANGE (AFWTR)
aabbcc
Your satellite tracking list
Your tracking list is empty




NASA's NSSDC Master Catalog

Two Line Element Set (TLE):
1  4047U 69062A   18050.58598545 -.00000007 +00000-0 +15072-4 0  9998
2  4047 098.8214 255.1425 0044931 158.9466 201.3578 14.28607797527251
Source of the keplerian elements: AFSPC